Weather in Lörrach

Germany     47°36′39″N   7°39′48″E
temp.,
°C
wind,
m/s
gust,
m/s
humid.,
%
clouds,
%
prec.,
mm/h
press.,
hPa
HPBL,
m
21 january, fri
fri2101:00−5sse019826 0.1 103322
04:00−6e009822 0.0 103411
07:00−6sse009818 0.0 103412
10:00−3nw01865 0.0 1034186
13:00+1nnw127246 0.0 1034722
16:00+1nw12776 0.0 1034198
19:00−5sse11978 0.0 103610
22:00−5ese11965 0.0 103714
22 january, sat
sat2201:00−5se11955 0.0 103715
04:00−5se11965 0.0 103619
07:00−5se119526 0.0 103721
10:00−1ese117821 0.0 1037102
13:00+3nne117237 0.0 1035301
16:00+2nnw118753 0.0 103563
19:00−1se009844 0.0 103612
22:00−4se119927 0.0 103710
23 january, sun
sun2301:00−4se119825 0.0 103614
04:00−2ese119856 0.0 103419
07:00−2ese119853 0.0 103422
10:00+1e128719 0.0 1034141
13:00+5ene366825 0.0 1032901
16:00+4e268018 0.0 1032313
19:00−2ese21945 0.0 103312
22:00−2se21947 0.0 103314
24 january, mon
mon2401:00−3sse21958 0.0 103315
04:00−3sse219731 0.0 103318
07:000se1593100 0.0 1033290
10:00+1se148682 0.0 1034309
13:00+4e257359 0.0 1033804
16:00+4ene118233 0.0 103374
19:00−1se11935 0.0 103510
22:00−2se11956 0.0 103611
25 january, tue
tue2501:00−3se11969 0.0 103713
04:00−3se22979 0.0 103725
07:00−3se219711 0.0 103822
10:000ese128828 0.0 1038203
13:00+4e12758 0.0 1037465
16:00+3ene11835 0.0 103615
19:00−1se119385 0.0 103810
22:00−2ese119557 0.0 103920